Powrót do katalogu

NOAA 16 DEB

AktywnySSO
NORAD 41400·DEBRIS·🇺🇸 United States

Wystrzelony Sep 21, 2000 z Vandenberg Space Force Base

Loading…

Następne Przeloty (najbliższe 24 godziny)

TLE

ŚwieżeSource: Space-Track

Epoka: Sep 14, 2026, 13:18 UTC

1 41400U 00055KD  26257.55422367  .00003037  00000-0  10455-2 0  9995
2 41400  98.7183 357.1287 0014094 352.3203   7.7765 14.36659063545353

Śledź NOAA 16 DEB w czasie rzeczywistym z AllMySat

Download on the App Store